CW4352 Weather Reports


time (UTC)temp
C
wind
direction
speed
KPH
gust
KPH
rain 1hr
cm
rain 24hr
cm
rain mn
cm
humidity
%
barometer
mb
20260906101205 29 47 1.6 4.8 0.00 0.00 0.00 54 1017.1
20260906094205 28 15 3.2 4.8 0.00 0.00 0.00 55 1017.3
20260906090705 28 23 3.2 9.7 0.00 0.00 0.00 54 1016.9
20260906081707 28 350 1.6 4.8 0.00 0.00 0.00 54 1016.9
20260906081205 28 350 1.6 8.0 0.00 0.00 0.00 54 1016.9
20260906080705 27 350 1.6 4.8 0.00 0.00 0.00 56 1016.9
20260906080205 27 350 1.6 4.8 0.00 0.00 0.00 56 1016.9
20260906074705 27 323 1.6 4.8 0.00 0.00 0.00 56 1016.5
20260906074205 27 323 1.6 4.8 0.00 0.00 0.00 57 1016.5
20260906073705 26 323 1.6 8.0 0.00 0.00 0.00 57 1016.5
20260906073205 26 323 3.2 4.8 0.00 0.00 0.00 58 1016.5
20260906071705 26 323 0.0 3.2 0.00 0.00 0.00 61 1016.5
20260906071205 25 323 0.0 1.6 0.00 0.00 0.00 59 1016.5
20260906064705 23 321 0.0 3.2 0.00 0.00 0.00 60 1016.5
20260906064205 23 321 0.0 0.0 0.00 0.00 0.00 62 1016.4
20260906063705 23 321 0.0 0.0 0.00 0.00 0.00 64 1016.4
20260906063207 22 321 0.0 0.0 0.00 0.00 0.00 65 1016.4
20260906061705 21 321 0.0 1.6 0.00 0.00 0.00 68 1016.4
20260906061205 21 321 0.0 0.0 0.00 0.00 0.00 69 1016.4
20260906060205 21 321 0.0 3.2 0.00 0.00 0.00 69 1015.9
20260906051204 20 321 0.0 3.2 0.00 0.00 0.00 70 1015.9
20260906044205 20 321 0.0 1.6 0.00 0.00 0.00 68 1015.8
20260906043205 20 321 0.0 3.2 0.00 0.00 0.00 67 1015.8
20260906041705 20 321 0.0 3.2 0.00 0.00 0.00 68 1015.3
20260906040205 20 321 1.6 4.8 0.00 0.00 0.00 68 1015.3
20260906034705 20 321 0.0 3.2 0.00 0.00 0.00 67 1015.1
20260906034205 21 321 0.0 1.6 0.00 0.00 0.00 67 1015.1
20260906033705 21 321 0.0 1.6 0.00 0.00 0.00 67 1015.1
20260906033204 21 321 0.0 0.0 0.00 0.00 0.00 66 1015.1
20260906031205 21 321 0.0 0.0 0.00 0.00 0.00 64 1014.8
20260906024705 22 321 0.0 0.0 0.00 0.00 0.00 61 1014.8
20260906024205 22 321 0.0 0.0 0.00 0.00 0.00 61 1014.8
20260906023204 22 321 0.0 0.0 0.00 0.00 0.00 59 1014.7
20260906021704 22 321 0.0 0.0 0.00 0.00 0.00 59 1014.7
20260906020705 22 321 0.0 1.6 0.00 0.00 0.00 60 1014.7
20260906014705 23 321 0.0 3.2 0.00 0.00 0.00 58 1014.5
20260906014204 23 321 0.0 1.6 0.00 0.00 0.00 57 1014.5
20260906013705 23 321 0.0 3.2 0.00 0.00 0.00 57 1014.3
20260906013204 23 321 1.6 3.2 0.00 0.00 0.00 57 1014.3
20260906011204 23 321 3.2 4.8 0.00 0.00 0.00 55 1014.3
20260906010205 23 321 1.6 4.8 0.00 0.00 0.00 55 1014.3
20260906003205 24 321 3.2 4.8 0.00 0.00 0.00 55 1014.1
20260906001705 24 321 3.2 8.0 0.00 0.00 0.00 55 1014.1
20260905234705 24 321 1.6 4.8 0.00 0.00 0.00 53 1014.2
20260905234204 25 321 1.6 4.8 0.00 0.00 0.00 54 1014.2
20260905233705 25 321 1.6 4.8 0.00 0.00 0.00 54 1014.2
20260905231705 25 321 3.2 4.8 0.00 0.00 0.00 53 1013.9
20260905223704 25 321 1.6 3.2 0.00 0.00 0.00 51 1013.2
20260905223204 25 321 1.6 4.8 0.00 0.00 0.00 51 1013.2
20260905221205 26 321 1.6 4.8 0.00 0.00 0.00 49 1013.2
20260905220705 26 321 3.2 4.8 0.00 0.00 0.00 49 1013.2
20260905220205 26 321 3.2 4.8 0.00 0.00 0.00 49 1013.2
20260905214704 26 321 1.6 8.0 0.00 0.00 0.00 47 1013.2
20260905214205 26 321 3.2 4.8 0.00 0.00 0.00 47 1013.2
20260905213704 26 321 4.8 4.8 0.00 0.00 0.00 47 1012.7
20260905213204 26 321 3.2 8.0 0.00 0.00 0.00 46 1012.7
20260905211705 26 321 4.8 8.0 0.00 0.00 0.00 45 1012.7
20260905211205 26 321 6.4 11.3 0.00 0.00 0.00 45 1012.7
20260905210704 26 348 3.2 4.8 0.00 0.00 0.00 46 1012.7
20260905204704 26 355 3.2 4.8 0.00 0.00 0.00 45 1012.7
20260905203704 27 355 3.2 4.8 0.00 0.00 0.00 43 1012.7
20260905203205 27 355 1.6 3.2 0.00 0.00 0.00 41 1012.7
20260905201204 27 355 1.6 3.2 0.00 0.00 0.00 39 1012.7
20260905200205 27 355 1.6 3.2 0.00 0.00 0.00 39 1012.7
20260905194705 27 355 0.0 1.6 0.00 0.00 0.00 38 1011.2
20260905194204 27 355 1.6 3.2 0.00 0.00 0.00 39 1011.2
20260905191205 28 355 0.0 0.0 0.00 0.00 0.00 37 1011.2
20260905190705 28 355 1.6 3.2 0.00 0.00 0.00 37 1011.2
20260905183705 29 355 0.0 0.0 0.00 0.00 0.00 35 1011.2
20260905183205 29 355 0.0 3.2 0.00 0.00 0.00 33 1011.2
20260905181705 30 355 0.0 0.0 0.00 0.00 0.00 32 1011.2
20260905180704 31 355 0.0 1.6 0.00 0.00 0.00 31 1011.2
20260905174704 32 355 0.0 0.0 0.00 0.00 0.00 28 1011.1
20260905170204 33 355 1.6 4.8 0.00 0.00 0.00 25 1011.0
20260905164704 34 355 1.6 4.8 0.00 0.00 0.00 25 1011.0
20260905164205 34 355 1.6 4.8 0.00 0.00 0.00 24 1010.6
20260905163204 35 355 3.2 8.0 0.00 0.00 0.00 24 1010.6
20260905160705 35 29 1.6 4.8 0.00 0.00 0.00 24 1010.6
20260905160204 35 29 1.6 4.8 0.00 0.00 0.00 24 1010.6
20260905154704 35 39 1.6 4.8 0.00 0.00 0.00 23 1010.6
20260905153704 35 39 3.2 4.8 0.00 0.00 0.00 24 1010.6
20260905153205 35 39 1.6 4.8 0.00 0.00 0.00 24 1010.6
20260905151205 35 42 3.2 8.0 0.00 0.00 0.00 24 1010.8
20260905150704 35 40 4.8 8.0 0.00 0.00 0.00 24 1010.8
20260905144204 35 0 3.2 4.8 0.00 0.00 0.00 24 1011.1
20260905143204 35 48 3.2 8.0 0.00 0.00 0.00 24 1011.1
20260905141704 35 31 3.2 11.3 0.00 0.00 0.00 25 1011.3
20260905141205 35 15 3.2 4.8 0.00 0.00 0.00 24 1011.3
20260905140704 35 14 1.6 3.2 0.00 0.00 0.00 24 1011.3
20260905134704 34 11 1.6 4.8 0.00 0.00 0.00 25 1011.3
20260905133705 34 22 1.6 8.0 0.00 0.00 0.00 25 1011.6
20260905131705 33 3 3.2 8.0 0.00 0.00 0.00 25 1011.6
20260905131204 33 6 1.6 4.8 0.00 0.00 0.00 25 1011.6
20260905130704 33 30 3.2 9.7 0.00 0.00 0.00 25 1011.6
20260905124204 33 14 3.2 14.5 0.00 0.00 0.00 26 1012.1
20260905121204 33 49 1.6 9.7 0.00 0.00 0.00 25 1012.2
20260905120704 33 341 4.8 12.9 0.00 0.00 0.00 25 1012.2
20260905114704 33 23 3.2 8.0 0.00 0.00 0.00 26 1012.2
20260905114204 33 13 3.2 11.3 0.00 0.00 0.00 25 1012.2
20260905113704 33 23 3.2 4.8 0.00 0.00 0.00 25 1012.2
20260905113204 32 30 3.2 16.1 0.00 0.00 0.00 25 1012.2
20260905111204 32 30 3.2 8.0 0.00 0.00 0.00 25 1012.7
20260905110704 32 24 3.2 4.8 0.00 0.00 0.00 26 1012.7
20260905110205 32 19 3.2 8.0 0.00 0.00 0.00 25 1012.7
20260905104704 32 43 3.2 8.0 0.00 0.00 0.00 26 1012.7
20260905104204 32 45 3.2 8.0 0.00 0.00 0.00 26 1012.7
20260905103704 32 33 1.6 8.0 0.00 0.00 0.00 26 1012.7